Beaufort, NC

5:54 AM EST on December 10, 2019 (GMT -0500)
Smith

Weather History for KMRH - October, 2019

Change the Weather History Date:

Thursday, October 3, 2019

  Actual Average Record
Temperature  
Mean Temperature 82 °F -  
Max Temperature 86 °F 79 °F 89 °F (1986)
Min Temperature 77 °F 58 °F 40 °F (1974)
Cooling Degree Days 16    
Growing Degree Days 32 (Base 50)    
Moisture  
Dew Point 76 °F    
Average Humidity 85    
Maximum Humidity 96    
Minimum Humidity 72    
Precipitation  
Precipitation 0.00 in - - ()
Sea Level Pressure  
Sea Level Pressure 29.99 in    
Wind  
Wind Speed 9 mph (SW)    
Max Wind Speed 14 mph    
Max Gust Speed -    
Visibility 10 miles    
Events      
Averages and records for this station are not official NWS values.
T = Trace of Precipitation, MM = Missing Value Source: NWS Daily Summary

Daily Weather History Graph

Daily Weather History Graph

Search for Another Location

Airport or City:

Astronomy

Oct. 03, 2019 Rise Set
Actual Time 7:02 AM EDT 6:48 PM EDT
Civil Twilight 6:37 AM EDT 7:13 PM EDT
Nautical Twilight 6:08 AM EDT 7:42 PM EDT
Astronomical Twilight 5:38 AM EDT 8:11 PM EDT
Moon 12:19 PM EDT (10/3) 10:37 PM EDT (10/3)
Length of Visible Light 12h 35m
Length of Day
11h 45m
Waxing Crescent, 29% of the Moon is Illuminated
Oct 3
Waxing Crescent
Oct 5
First Quarter
Oct 13
Full
Oct 21
Last Quarter
Oct 27
New

Hourly Weather History & Observations

Time (EDT) Temp. Heat Index Dew Point Humidity Pressure Visibility Wind Dir Wind Speed Gust Speed Precip Events Conditions
12:58 AM 79.0 °F - 73.0 °F 82% 29.98 in 10.0 mi SW 9.2 mph - N/A   Clear
1:58 AM 79.0 °F - 73.9 °F 84% 29.98 in 10.0 mi WSW 10.4 mph - N/A   Clear
2:58 AM 78.1 °F - 73.9 °F 87% 29.97 in 10.0 mi WSW 6.9 mph - N/A   Clear
3:58 AM 78.1 °F - 75.0 °F 90% 29.97 in 10.0 mi WSW 6.9 mph - N/A   Clear
4:58 AM 78.1 °F - 75.0 °F 90% 29.98 in 10.0 mi WSW 5.8 mph - N/A   Clear
5:58 AM 77.0 °F - 75.9 °F 96% 29.99 in 9.0 mi West 6.9 mph - N/A   Clear
6:58 AM 77.0 °F - 75.0 °F 94% 30.00 in 10.0 mi West 6.9 mph - N/A   Clear
7:58 AM 78.1 °F - 75.0 °F 90% 30.01 in 10.0 mi West 6.9 mph - N/A   Clear
8:58 AM 80.1 °F 84.5 °F 73.9 °F 81% 30.02 in 10.0 mi West 10.4 mph - N/A   Clear
9:58 AM 82.0 °F 87.4 °F 73.0 °F 74% 30.02 in 10.0 mi SW 10.4 mph - N/A   Clear
10:58 AM 84.0 °F 91.9 °F 75.0 °F 74% 30.02 in 10.0 mi SW 8.1 mph - N/A   Clear
11:58 AM 84.0 °F 91.2 °F 73.9 °F 72% 30.00 in 10.0 mi SW 11.5 mph - N/A   Clear
12:58 PM 84.9 °F 94.1 °F 75.9 °F 74% 29.99 in 10.0 mi SW 10.4 mph - N/A   Clear
1:58 PM 86.0 °F 96.0 °F 75.9 °F 72% 29.97 in 10.0 mi SW 11.5 mph - N/A   Clear
2:58 PM 86.0 °F 96.9 °F 77.0 °F 74% 29.97 in 10.0 mi SSW 12.7 mph - N/A   Clear
3:58 PM 84.9 °F 94.1 °F 75.9 °F 74% 29.96 in 10.0 mi SSW 13.8 mph - N/A   Clear
4:58 PM 82.9 °F 91.8 °F 77.0 °F 82% 29.96 in 10.0 mi SW 11.5 mph - N/A   Clear
5:58 PM 82.0 °F 90.2 °F 77.0 °F 85% 29.96 in 10.0 mi SSW 10.4 mph - N/A   Clear
6:58 PM 80.1 °F 85.8 °F 77.0 °F 90% 29.97 in 10.0 mi SW 10.4 mph - N/A   Clear
7:58 PM 80.1 °F 85.4 °F 75.9 °F 87% 29.98 in 10.0 mi SW 11.5 mph - N/A   Clear
8:58 PM 80.1 °F 86.4 °F 78.1 °F 94% 29.99 in 10.0 mi SW 11.5 mph - N/A   Clear
9:58 PM 80.1 °F 86.4 °F 78.1 °F 94% 30.01 in 10.0 mi SW 9.2 mph - N/A   Clear
10:58 PM 80.1 °F 86.4 °F 78.1 °F 94% 30.01 in 10.0 mi SSW 12.7 mph - N/A   Clear
11:58 PM 80.1 °F 86.4 °F 78.1 °F 94% 30.00 in 9.0 mi SSW 10.4 mph - N/A   Partly Cloudy